BNL101 HLLB-DTTA

Flight info

Callsign BNL101
Flight time 1h 30m
Altitude 36000
Route BNA M622 INDOT DCT SONAK UM978 DIDON
Aircraft A320/M-SDFGHIRWY/HD1

Departure

Time 2026-04-24 19:51
Airport Benina International Airport (HLLB)

Arrival

Time 2026-04-24 21:22
Airport Tunis Carthage International Airport (DTTA)
Time Latitude Longitude Altitude Speed Heading
2026-04-24 19:27 32.08824 20.26894 412 ft 0 kts 356°
2026-04-24 19:42 32.08816 20.26895 414 ft 4 kts 356°
2026-04-24 19:42 32.08789 20.26897 414 ft 4 kts 356°
2026-04-24 19:42 32.08766 20.26898 414 ft 4 kts 24°
2026-04-24 19:42 32.08749 20.26878 411 ft 4 kts 69°
2026-04-24 19:43 32.08742 20.26848 414 ft 4 kts 82°
2026-04-24 19:43 32.08740 20.26820 414 ft 1 kts 86°
2026-04-24 19:45 32.08740 20.26822 414 ft 2 kts 86°
2026-04-24 19:45 32.08745 20.26913 411 ft 16 kts 86°
2026-04-24 19:45 32.08752 20.27024 414 ft 11 kts 86°
2026-04-24 19:45 32.08705 20.27104 412 ft 14 kts 150°
2026-04-24 19:46 32.08625 20.27158 411 ft 15 kts 150°
2026-04-24 19:46 32.08534 20.27219 412 ft 14 kts 150°
2026-04-24 19:46 32.08428 20.27290 414 ft 24 kts 150°
2026-04-24 19:46 32.08271 20.27396 412 ft 26 kts 150°
2026-04-24 19:47 32.08143 20.27481 413 ft 16 kts 147°
2026-04-24 19:47 32.08137 20.27567 414 ft 10 kts 57°
2026-04-24 19:47 32.08169 20.27625 414 ft 9 kts 59°
2026-04-24 19:47 32.08213 20.27714 410 ft 12 kts 59°
2026-04-24 19:48 32.08239 20.27745 413 ft 0 kts
2026-04-24 19:48 32.08244 20.27742 413 ft 1 kts 340°
2026-04-24 19:48 32.08262 20.27726 409 ft 0 kts 329°
2026-04-24 19:50 32.09467 20.26913 410 ft 150 kts 330°
2026-04-24 19:50 32.10411 20.26275 918 ft 157 kts 330°
2026-04-24 19:51 32.12421 20.24884 1852 ft 187 kts 330°
2026-04-24 19:51 32.13618 20.24058 2213 ft 211 kts 330°
2026-04-24 19:52 32.16365 20.22153 3606 ft 237 kts 330°
2026-04-24 19:52 32.17711 20.21017 4521 ft 244 kts 314°
2026-04-24 19:52 32.18617 20.19293 5391 ft 251 kts 302°
2026-04-24 19:52 32.19594 20.17587 6258 ft 251 kts 311°
2026-04-24 19:53 32.20719 20.15976 7091 ft 256 kts 312°
2026-04-24 19:53 32.21899 20.14365 7927 ft 261 kts 313°
2026-04-24 19:53 32.24298 20.11034 9548 ft 271 kts 310°
2026-04-24 19:54 32.25508 20.09291 10318 ft 279 kts 309°
2026-04-24 19:54 32.26757 20.07461 10608 ft 302 kts 309°
2026-04-24 19:54 32.28119 20.05436 10849 ft 326 kts 308°
2026-04-24 19:54 32.29548 20.03292 11386 ft 336 kts 308°
2026-04-24 19:55 32.30507 20.01849 11855 ft 339 kts 308°
2026-04-24 19:55 32.32462 19.98904 12850 ft 342 kts 308°
2026-04-24 19:55 32.33935 19.96686 13617 ft 343 kts 308°
2026-04-24 19:55 32.35413 19.94464 14375 ft 344 kts 308°
2026-04-24 19:56 32.36896 19.92231 15093 ft 346 kts 308°
2026-04-24 19:56 32.38384 19.89988 15789 ft 347 kts 308°
2026-04-24 19:56 32.39882 19.87734 16479 ft 349 kts 307°
2026-04-24 19:56 32.41385 19.85468 17163 ft 350 kts 307°
2026-04-24 19:57 32.42890 19.83196 17813 ft 352 kts 307°
2026-04-24 19:57 32.44407 19.80903 18468 ft 355 kts 307°
2026-04-24 19:57 32.45930 19.78602 19097 ft 357 kts 307°
2026-04-24 19:57 32.47468 19.76280 19690 ft 359 kts 307°
2026-04-24 19:58 32.49015 19.73941 20248 ft 362 kts 307°
2026-04-24 19:58 32.50568 19.71588 20775 ft 365 kts 307°
2026-04-24 19:58 32.52136 19.69210 21299 ft 367 kts 307°
2026-04-24 19:58 32.53720 19.66813 21790 ft 370 kts 307°
2026-04-24 19:59 32.55290 19.64435 22249 ft 373 kts 307°
2026-04-24 19:59 32.56894 19.62002 22698 ft 377 kts 307°
2026-04-24 19:59 32.58516 19.59541 23136 ft 379 kts 307°
2026-04-24 19:59 32.60145 19.57067 23557 ft 382 kts 307°
2026-04-24 20:00 32.61786 19.54575 23965 ft 384 kts 307°
2026-04-24 20:00 32.63433 19.52072 24342 ft 387 kts 307°
2026-04-24 20:00 32.65094 19.49544 24702 ft 390 kts 307°
2026-04-24 20:00 32.66765 19.47000 25064 ft 392 kts 307°
2026-04-24 20:01 32.68450 19.44433 25413 ft 395 kts 307°
2026-04-24 20:01 32.70138 19.41857 25768 ft 397 kts 307°
2026-04-24 20:01 32.71838 19.39259 26102 ft 400 kts 307°
2026-04-24 20:01 32.73548 19.36644 26432 ft 402 kts 307°
2026-04-24 20:02 32.74685 19.34907 26640 ft 403 kts 307°
2026-04-24 20:02 32.76996 19.31374 27071 ft 406 kts 307°
2026-04-24 20:02 32.78730 19.28717 27380 ft 408 kts 307°
2026-04-24 20:02 32.80473 19.26043 27673 ft 410 kts 307°
2026-04-24 20:03 32.82246 19.23380 27954 ft 412 kts 308°
2026-04-24 20:03 32.84063 19.20738 28222 ft 414 kts 309°
2026-04-24 20:03 32.85906 19.18104 28485 ft 415 kts 309°
2026-04-24 20:03 32.87763 19.15460 28736 ft 417 kts 309°
2026-04-24 20:04 32.89621 19.12802 28981 ft 419 kts 309°
2026-04-24 20:04 32.91480 19.10124 29201 ft 420 kts 309°
2026-04-24 20:04 32.93337 19.07434 29446 ft 421 kts 308°
2026-04-24 20:04 32.95164 19.04778 29759 ft 420 kts 308°
2026-04-24 20:05 32.97007 19.02095 30077 ft 418 kts 308°
2026-04-24 20:05 32.98844 18.99413 30388 ft 417 kts 308°
2026-04-24 20:05 33.00677 18.96732 30672 ft 417 kts 308°
2026-04-24 20:05 33.02511 18.94052 30950 ft 417 kts 308°
2026-04-24 20:06 33.04345 18.91373 31233 ft 417 kts 309°
2026-04-24 20:06 33.06179 18.88696 31504 ft 417 kts 309°
2026-04-24 20:06 33.08010 18.86023 31780 ft 417 kts 309°
2026-04-24 20:06 33.09846 18.83341 32058 ft 416 kts 309°
2026-04-24 20:07 33.11082 18.81537 32238 ft 416 kts 309°
2026-04-24 20:07 33.13506 18.77999 32594 ft 416 kts 309°
2026-04-24 20:07 33.15335 18.75323 32859 ft 416 kts 309°
2026-04-24 20:07 33.17161 18.72643 33117 ft 416 kts 309°
2026-04-24 20:08 33.18987 18.69961 33393 ft 415 kts 309°
2026-04-24 20:08 33.20806 18.67288 33662 ft 415 kts 309°
2026-04-24 20:08 33.22624 18.64614 33917 ft 415 kts 309°
2026-04-24 20:08 33.24436 18.61941 34181 ft 414 kts 309°
2026-04-24 20:09 33.26248 18.59263 34456 ft 414 kts 309°
2026-04-24 20:09 33.28057 18.56595 34737 ft 413 kts 309°
2026-04-24 20:09 33.29874 18.53928 34968 ft 413 kts 309°
2026-04-24 20:09 33.31685 18.51270 35215 ft 413 kts 309°
2026-04-24 20:10 33.33497 18.48605 35438 ft 413 kts 308°
2026-04-24 20:10 33.35300 18.45940 35656 ft 412 kts 308°
2026-04-24 20:10 33.37106 18.43269 35860 ft 412 kts 308°
2026-04-24 20:10 33.38911 18.40602 36036 ft 412 kts 308°
2026-04-24 20:11 33.40717 18.37928 36082 ft 414 kts 308°
2026-04-24 20:11 33.44288 18.32578 36083 ft 414 kts 308°
2026-04-24 20:12 33.47843 18.27156 36091 ft 414 kts 308°
2026-04-24 20:12 33.51398 18.21731 36090 ft 414 kts 308°
2026-04-24 20:13 33.54954 18.16307 36090 ft 414 kts 308°
2026-04-24 20:13 33.58509 18.10888 36090 ft 413 kts 308°
2026-04-24 20:14 33.62063 18.05455 36091 ft 413 kts 308°
2026-04-24 20:14 33.65603 18.00020 36090 ft 413 kts 308°
2026-04-24 20:15 33.69156 17.94599 36089 ft 413 kts 308°
2026-04-24 20:15 33.72704 17.89159 36090 ft 414 kts 308°
2026-04-24 20:16 33.76247 17.83717 36092 ft 413 kts 308°
2026-04-24 20:16 33.79781 17.78274 36090 ft 413 kts 308°
2026-04-24 20:17 33.83313 17.72829 36088 ft 413 kts 308°
2026-04-24 20:17 33.88602 17.64651 36084 ft 413 kts 308°
2026-04-24 20:18 33.92130 17.59195 36090 ft 413 kts 308°
2026-04-24 20:18 33.95654 17.53733 36091 ft 413 kts 308°
2026-04-24 20:19 33.99169 17.48268 36094 ft 413 kts 308°
2026-04-24 20:19 34.02686 17.42801 36091 ft 413 kts 308°
2026-04-24 20:20 34.06205 17.37319 36087 ft 414 kts 308°
2026-04-24 20:20 34.09735 17.31830 36083 ft 414 kts 308°
2026-04-24 20:21 34.13237 17.26363 36083 ft 415 kts 308°
2026-04-24 20:21 34.16762 17.20844 36085 ft 415 kts 308°
2026-04-24 20:22 34.20290 17.15315 36088 ft 416 kts 308°
2026-04-24 20:22 34.23819 17.09772 36086 ft 416 kts 308°
2026-04-24 20:23 34.27350 17.04223 36087 ft 417 kts 308°
2026-04-24 20:23 34.30895 16.98664 36091 ft 417 kts 308°
2026-04-24 20:24 34.34212 16.92913 36093 ft 419 kts 300°
2026-04-24 20:24 34.37005 16.86722 36095 ft 419 kts 300°
2026-04-24 20:25 34.39807 16.80529 36101 ft 420 kts 300°
2026-04-24 20:25 34.42613 16.74330 36102 ft 420 kts 300°
2026-04-24 20:26 34.45417 16.68130 36104 ft 420 kts 300°
2026-04-24 20:26 34.48222 16.61928 36106 ft 419 kts 300°
2026-04-24 20:27 34.51017 16.55709 36110 ft 420 kts 300°
2026-04-24 20:27 34.53807 16.49468 36114 ft 421 kts 300°
2026-04-24 20:28 34.56608 16.43229 36125 ft 421 kts 300°
2026-04-24 20:28 34.59412 16.36980 36131 ft 422 kts 300°
2026-04-24 20:29 34.62204 16.30724 36128 ft 421 kts 300°
2026-04-24 20:29 34.64970 16.24504 36133 ft 421 kts 300°
2026-04-24 20:30 34.67759 16.18239 36132 ft 421 kts 300°
2026-04-24 20:30 34.70545 16.11972 36141 ft 421 kts 300°
2026-04-24 20:31 34.73321 16.05708 36134 ft 421 kts 300°
2026-04-24 20:31 34.76099 15.99445 36131 ft 421 kts 300°
2026-04-24 20:32 34.78867 15.93161 36134 ft 421 kts 300°
2026-04-24 20:32 34.81631 15.86874 36128 ft 422 kts 300°
2026-04-24 20:33 34.84413 15.80580 36127 ft 422 kts 300°
2026-04-24 20:33 34.87184 15.74280 36123 ft 422 kts 300°
2026-04-24 20:34 34.89928 15.68004 36121 ft 423 kts 300°
2026-04-24 20:34 34.92696 15.61679 36127 ft 423 kts 300°
2026-04-24 20:35 34.95462 15.55358 36118 ft 423 kts 300°
2026-04-24 20:35 34.98226 15.49032 36126 ft 423 kts 300°
2026-04-24 20:36 35.00986 15.42690 36118 ft 423 kts 300°
2026-04-24 20:36 35.03278 15.37412 36116 ft 423 kts 300°
2026-04-24 20:37 35.06031 15.31066 36123 ft 423 kts 300°
2026-04-24 20:37 35.08775 15.24713 36119 ft 423 kts 300°
2026-04-24 20:38 35.11526 15.18346 36120 ft 424 kts 300°
2026-04-24 20:38 35.14271 15.11978 36126 ft 424 kts 300°
2026-04-24 20:39 35.17023 15.05590 36131 ft 425 kts 300°
2026-04-24 20:39 35.19775 14.99195 36123 ft 425 kts 300°
2026-04-24 20:40 35.22523 14.92794 36136 ft 426 kts 299°
2026-04-24 20:40 35.25267 14.86375 36130 ft 426 kts 299°
2026-04-24 20:41 35.28011 14.79953 36143 ft 426 kts 299°
2026-04-24 20:41 35.30753 14.73526 36139 ft 426 kts 299°
2026-04-24 20:42 35.33493 14.67079 36145 ft 427 kts 299°
2026-04-24 20:42 35.36232 14.60629 36144 ft 427 kts 299°
2026-04-24 20:43 35.38973 14.54168 36144 ft 427 kts 299°
2026-04-24 20:43 35.41712 14.47699 36146 ft 427 kts 299°
2026-04-24 20:44 35.44443 14.41223 36147 ft 427 kts 299°
2026-04-24 20:44 35.47170 14.34738 36145 ft 427 kts 299°
2026-04-24 20:45 35.49894 14.28260 36135 ft 427 kts 298°
2026-04-24 20:45 35.52624 14.21770 36144 ft 428 kts 299°
2026-04-24 20:46 35.55349 14.15275 36142 ft 428 kts 298°
2026-04-24 20:46 35.58068 14.08780 36138 ft 428 kts 298°
2026-04-24 20:47 35.60770 14.02315 36135 ft 428 kts 298°
2026-04-24 20:47 35.63483 13.95794 36144 ft 429 kts 298°
2026-04-24 20:48 35.66193 13.89275 36129 ft 428 kts 298°
2026-04-24 20:48 35.68897 13.82754 36130 ft 428 kts 298°
2026-04-24 20:49 35.71606 13.76224 36146 ft 428 kts 298°
2026-04-24 20:49 35.74306 13.69688 36149 ft 429 kts 298°
2026-04-24 20:50 35.77008 13.63143 36153 ft 429 kts 298°
2026-04-24 20:50 35.79700 13.56595 36155 ft 428 kts 298°
2026-04-24 20:51 35.82390 13.50041 36155 ft 428 kts 298°
2026-04-24 20:51 35.85070 13.43497 36157 ft 428 kts 298°
2026-04-24 20:52 35.87744 13.36954 36154 ft 427 kts 298°
2026-04-24 20:52 35.90417 13.30412 36152 ft 426 kts 298°
2026-04-24 20:53 35.93082 13.23883 36151 ft 426 kts 298°
2026-04-24 20:53 35.95743 13.17355 36150 ft 425 kts 298°
2026-04-24 20:54 35.98376 13.10866 36153 ft 425 kts 298°
2026-04-24 20:54 36.01019 13.04335 36153 ft 425 kts 298°
2026-04-24 20:55 36.03663 12.97797 36132 ft 426 kts 298°
2026-04-24 20:55 36.06315 12.91239 36131 ft 426 kts 298°
2026-04-24 20:56 36.08960 12.84679 36131 ft 426 kts 298°
2026-04-24 20:56 36.11596 12.78113 36132 ft 426 kts 297°
2026-04-24 20:57 36.14229 12.71537 36135 ft 426 kts 297°
2026-04-24 20:57 36.16858 12.64964 36145 ft 426 kts 297°
2026-04-24 20:58 36.19484 12.58388 36147 ft 426 kts 297°
2026-04-24 20:58 36.22090 12.51848 36150 ft 426 kts 297°
2026-04-24 20:59 36.24704 12.45270 36150 ft 425 kts 297°
2026-04-24 20:59 36.27309 12.38702 36151 ft 424 kts 297°
2026-04-24 21:00 36.29908 12.32139 36148 ft 424 kts 297°
2026-04-24 21:00 36.32509 12.25571 36148 ft 424 kts 297°
2026-04-24 21:01 36.35105 12.19001 36149 ft 424 kts 297°
2026-04-24 21:01 36.37695 12.12421 36148 ft 425 kts 297°
2026-04-24 21:02 36.40287 12.05822 36152 ft 425 kts 297°
2026-04-24 21:02 36.42878 11.99218 36152 ft 425 kts 297°
2026-04-24 21:03 36.44165 11.95928 35753 ft 422 kts 297°
2026-04-24 21:03 36.45444 11.92656 34977 ft 422 kts 297°
2026-04-24 21:03 36.46728 11.89370 34177 ft 422 kts 297°
2026-04-24 21:03 36.48009 11.86088 33370 ft 422 kts 297°
2026-04-24 21:04 36.49286 11.82814 32520 ft 422 kts 297°
2026-04-24 21:04 36.50568 11.79521 31569 ft 425 kts 297°
2026-04-24 21:04 36.51858 11.76203 30581 ft 428 kts 297°
2026-04-24 21:04 36.53158 11.72851 29539 ft 431 kts 297°
2026-04-24 21:05 36.54453 11.69510 28810 ft 427 kts 297°
2026-04-24 21:05 36.55735 11.66204 28092 ft 422 kts 297°
2026-04-24 21:05 36.57006 11.62925 27067 ft 424 kts 297°
2026-04-24 21:05 36.58293 11.59600 26105 ft 426 kts 297°
2026-04-24 21:06 36.59553 11.56334 25340 ft 422 kts 297°
2026-04-24 21:06 36.60820 11.53051 24587 ft 419 kts 297°
2026-04-24 21:06 36.61978 11.49685 23833 ft 417 kts 290°
2026-04-24 21:06 36.62709 11.46261 23129 ft 414 kts 284°
2026-04-24 21:07 36.63357 11.42778 22436 ft 411 kts 284°
2026-04-24 21:07 36.64000 11.39325 21769 ft 408 kts 284°
2026-04-24 21:07 36.64639 11.35899 21117 ft 404 kts 284°
2026-04-24 21:07 36.65274 11.32503 20483 ft 401 kts 285°
2026-04-24 21:08 36.65907 11.29131 19864 ft 398 kts 284°
2026-04-24 21:08 36.66533 11.25793 19257 ft 395 kts 284°
2026-04-24 21:08 36.67153 11.22473 18657 ft 392 kts 284°
2026-04-24 21:08 36.67767 11.19174 18083 ft 389 kts 284°
2026-04-24 21:09 36.68376 11.15901 17495 ft 387 kts 284°
2026-04-24 21:09 36.68980 11.12653 16920 ft 384 kts 284°
2026-04-24 21:09 36.69479 11.09398 16328 ft 383 kts 275°
2026-04-24 21:09 36.69306 11.06098 15759 ft 382 kts 264°
2026-04-24 21:10 36.68935 11.02828 15156 ft 380 kts 263°
2026-04-24 21:10 36.68557 10.99580 14569 ft 378 kts 263°
2026-04-24 21:10 36.68178 10.96352 13977 ft 375 kts 263°
2026-04-24 21:10 36.67804 10.93139 13382 ft 373 kts 263°
2026-04-24 21:11 36.67433 10.89945 12760 ft 371 kts 263°
2026-04-24 21:11 36.67065 10.86784 12173 ft 368 kts 263°
2026-04-24 21:11 36.66702 10.83635 11555 ft 365 kts 263°
2026-04-24 21:11 36.66344 10.80514 10921 ft 363 kts 263°
2026-04-24 21:12 36.65997 10.77463 10749 ft 348 kts 263°
2026-04-24 21:12 36.65774 10.75514 10662 ft 338 kts 263°
2026-04-24 21:12 36.65336 10.71713 10221 ft 328 kts 263°
2026-04-24 21:12 36.65017 10.68918 9761 ft 325 kts 263°
2026-04-24 21:13 36.64704 10.66139 9282 ft 323 kts 263°
2026-04-24 21:13 36.64402 10.63415 8809 ft 321 kts 263°
2026-04-24 21:13 36.64102 10.60671 8318 ft 319 kts 263°
2026-04-24 21:13 36.63810 10.57949 7836 ft 316 kts 263°
2026-04-24 21:14 36.63524 10.55245 7355 ft 314 kts 263°
2026-04-24 21:14 36.63245 10.52567 6874 ft 311 kts 263°
2026-04-24 21:14 36.62970 10.49904 6382 ft 309 kts 263°
2026-04-24 21:14 36.62703 10.47264 5894 ft 306 kts 263°
2026-04-24 21:15 36.62442 10.44645 5400 ft 304 kts 263°
2026-04-24 21:15 36.62296 10.42060 5151 ft 292 kts 276°
2026-04-24 21:15 36.62644 10.39642 5027 ft 277 kts 283°
2026-04-24 21:15 36.63065 10.37338 4736 ft 269 kts 283°
2026-04-24 21:16 36.63488 10.35075 4329 ft 267 kts 283°
2026-04-24 21:16 36.63912 10.32827 3906 ft 266 kts 283°
2026-04-24 21:16 36.64336 10.30591 3472 ft 265 kts 283°
2026-04-24 21:16 36.64762 10.28363 3045 ft 264 kts 283°
2026-04-24 21:17 36.65190 10.26151 2615 ft 262 kts 283°
2026-04-24 21:17 36.65615 10.23955 2300 ft 257 kts 283°
2026-04-24 21:17 36.66088 10.21878 2170 ft 243 kts 296°
2026-04-24 21:17 36.66714 10.20767 2098 ft 233 kts 318°
2026-04-24 21:18 36.68462 10.19359 1999 ft 215 kts 334°
2026-04-24 21:18 36.69878 10.18825 2006 ft 213 kts 356°
2026-04-24 21:18 36.71346 10.18958 2011 ft 212 kts 13°
2026-04-24 21:18 36.72773 10.19347 2006 ft 203 kts 13°
2026-04-24 21:19 36.74123 10.19715 1921 ft 196 kts 13°
2026-04-24 21:19 36.75436 10.20072 1740 ft 189 kts 13°
2026-04-24 21:19 36.76666 10.20406 1483 ft 177 kts 13°
2026-04-24 21:19 36.77799 10.20713 1267 ft 157 kts 13°
2026-04-24 21:20 36.79790 10.21255 846 ft 140 kts 14°
2026-04-24 21:20 36.80732 10.21507 678 ft 137 kts 13°
2026-04-24 21:20 36.81663 10.21760 487 ft 137 kts 13°
2026-04-24 21:21 36.82588 10.22008 330 ft 136 kts 14°
2026-04-24 21:21 36.83510 10.22261 154 ft 136 kts 14°
2026-04-24 21:21 36.84414 10.22510 30 ft 123 kts 13°
2026-04-24 21:21 36.85083 10.22694 34 ft 74 kts 12°
2026-04-24 21:22 36.85441 10.22792 33 ft 43 kts 12°
2026-04-24 21:22 36.85631 10.22843 30 ft 41 kts 12°
2026-04-24 21:22 36.85894 10.22913 29 ft 24 kts 12°
2026-04-24 21:22 36.86003 10.22848 29 ft 19 kts 310°
2026-04-24 21:23 36.86015 10.22728 30 ft 13 kts 250°
2026-04-24 21:23 36.85957 10.22656 30 ft 11 kts 201°
2026-04-24 21:23 36.85883 10.22633 30 ft 12 kts 193°
2026-04-24 21:23 36.85744 10.22596 30 ft 26 kts 192°
2026-04-24 21:24 36.85563 10.22547 30 ft 28 kts 192°
2026-04-24 21:24 36.85370 10.22496 31 ft 29 kts 192°
2026-04-24 21:24 36.85172 10.22444 36 ft 29 kts 192°
2026-04-24 21:24 36.84997 10.22394 31 ft 22 kts 191°
2026-04-24 21:25 36.84842 10.22352 30 ft 24 kts 193°
2026-04-24 21:25 36.84673 10.22305 30 ft 26 kts 192°
2026-04-24 21:25 36.84520 10.22263 30 ft 16 kts 192°
2026-04-24 21:25 36.84497 10.22170 30 ft 13 kts 286°
2026-04-24 21:26 36.84538 10.22089 30 ft 10 kts 340°
2026-04-24 21:26 36.84561 10.22084 30 ft 1 kts 344°
2026-04-24 21:26 36.84557 10.22063 30 ft 3 kts 252°
2026-04-24 21:26 36.84558 10.22031 30 ft 4 kts 289°
2026-04-24 21:27 36.84565 10.22009 30 ft 2 kts 292°
2026-04-24 21:27 36.84566 10.22006 30 ft 0 kts 292°